Location: *
(42.3939°S, 170.7209°W)
Time: 01:57:03
(UTC+00:00)

Daily predictions for brighter satellites

Satellite Brightness Start Highest point End
(mag) Time Altitude Azimuth Time Altitude Azimuth Time Altitude Azimuth
Cosmos 407 Rocket 4.1 05:17:38 10° SSW 05:22:59 68° WNW 05:28:12 10° N
STARLINK-68 4.1 05:21:11 10° SW 05:25:08 44° SSE 05:29:03 10° ENE
Cosmos 1844 3.9 05:19:20 10° NNW 05:25:10 84° WSW 05:31:03 10° SSE
Cosmos 676 Rocket 4.1 05:20:18 10° SSW 05:25:42 66° ESE 05:31:02 10° NNE
STARLINK-1016 4.3 05:21:51 10° SW 05:25:52 41° SSE 05:29:52 10° E
Lacrosse 4 Rocket 1.5 05:22:15 10° NNW 05:26:25 82° WSW 05:30:34 10° SSE
STARLINK-63 4.1 05:22:45 10° SW 05:26:41 44° SSE 05:30:36 10° ENE
STARLINK-1029 2.9 05:24:10 10° SW 05:27:26 71° SE 05:30:39 10° ENE
H-2A R/B 2.7 05:24:03 10° SSE 05:27:53 74° E 05:31:38 10° N
STARLINK-35 4.1 05:24:18 10° SW 05:28:14 43° SSE 05:32:10 10° ENE
STARLINK-51 4.1 05:25:57 10° SW 05:29:55 44° SSE 05:33:51 10° ENE
STARLINK-34 3.2 05:27:33 10° WSW 05:30:48 73° NW 05:34:02 10° NE
STARLINK-1008 4.2 05:26:49 10° SW 05:30:53 44° SSE 05:34:55 10° ENE
STARLINK-30 4.1 05:27:34 10° SW 05:31:32 45° SSE 05:35:29 10° ENE
STARLINK-62 3.2 05:28:25 10° WSW 05:31:41 71° NW 05:34:55 10° NE
STARLINK-72 4.0 05:29:15 10° SW 05:33:13 46° SSE 05:37:10 10° ENE
Cosmos 1452 Rocket 3.8 05:28:29 10° N 05:33:34 48° ENE 05:38:42 10° SSE
STARLINK-1179 3.3 05:31:15 10° WNW 05:34:25 64° SW 05:37:36 10° SE
STARLINK-1176 3.3 05:31:43 10° WNW 05:34:53 64° SW 05:38:04 10° SE
STARLINK-50 4.0 05:30:54 10° SW 05:34:53 48° SSE 05:38:51 10° ENE
STARLINK-22 4.4 05:32:08 10° WSW 05:35:12 38° NW 05:38:13 10° NNE
Cosmos 2058 Rocket 4.1 05:32:34 10° SSE 05:36:20 25° ESE 05:40:06 10° NE
STARLINK-59 3.9 05:32:38 10° SW 05:36:40 50° SSE 05:40:39 10° ENE
STARLINK-1173 3.3 05:34:18 10° WNW 05:37:28 64° SW 05:40:39 10° SE
STARLINK-1136 3.3 05:34:46 10° WNW 05:37:55 64° SW 05:41:06 10° SE
STARLINK-56 3.9 05:34:12 10° SW 05:38:12 50° SSE 05:42:12 10° ENE
STARLINK-73 3.9 05:35:51 10° SW 05:39:52 51° SSE 05:43:52 10° ENE
Cosmos 1726 Rocket 3.9 05:36:35 10° S 05:40:46 41° ESE 05:44:54 10° NNE
STARLINK-1025 4.0 05:36:45 10° SW 05:40:53 50° SSE 05:44:55 10° ENE
STARLINK-38 3.9 05:37:29 10° SW 05:41:31 52° SSE 05:45:28 10° ENE
Aureole 3 3.6 05:40:01 10° SSW 05:43:00 53° W 05:46:05 10° N
Cosmos 1300 4.5 05:40:54 10° SE 05:43:04 14° ESE 05:44:41 12° E
STARLINK-65 3.8 05:39:09 10° SW 05:43:11 54° SSE 05:47:04 11° ENE
Envisat 3.1 05:38:49 10° SSE 05:43:56 58° E 05:48:57 10° N
STARLINK-1183 3.3 05:41:17 10° WNW 05:44:27 63° SSW 05:47:38 10° SE
STARLINK-1181 3.3 05:41:44 10° WNW 05:44:54 62° SW 05:48:05 10° SE
STARLINK-53 3.8 05:40:53 10° SW 05:44:56 57° SSE 05:48:47 11° ENE
STARLINK-1196 3.3 05:42:12 10° WNW 05:45:21 62° SW 05:48:31 10° SE
STARLINK-1186 3.3 05:42:39 10° WNW 05:45:48 61° SW 05:48:58 10° SE
STARLINK-1017 3.9 05:41:43 10° SW 05:45:52 54° SSE 05:49:41 12° ENE
STARLINK-1185 3.4 05:43:07 10° WNW 05:46:15 61° SW 05:49:26 10° SE
Lacrosse 5 rocket 2.0 05:42:39 10° SW 05:46:38 38° SE 05:49:51 13° ENE
STARLINK-1175 3.4 05:43:33 10° WNW 05:46:42 60° SW 05:49:53 10° SE
STARLINK-1147 3.4 05:44:00 10° WNW 05:47:08 59° SW 05:50:19 10° SE
STARLINK-1146 3.4 05:44:27 10° WNW 05:47:36 59° SSW 05:50:47 10° SE
STARLINK-1014 3.8 05:43:41 10° SW 05:47:41 54° SSE 05:51:14 13° ENE
Cosmos 1954 Rocket 4.2 05:42:23 10° SSW 05:47:48 84° WNW 05:53:09 10° NNE
STARLINK-1152 3.4 05:44:54 10° WNW 05:48:02 58° SSW 05:51:12 10° SE
STARLINK-1157 4.5 05:44:22 10° NNW 05:48:08 33° NE 05:51:24 13° ESE
STARLINK-1195 3.4 05:45:22 10° WNW 05:48:31 58° SSW 05:51:41 10° SE
STARLINK-1137 3.4 05:45:49 10° WNW 05:48:57 57° SSW 05:52:07 10° SE
STARLINK-1140 4.5 05:45:21 10° NNW 05:49:06 33° NE 05:52:15 14° ESE
STARLINK-1142 3.5 05:46:16 10° WNW 05:49:25 57° SSW 05:52:35 10° SE
STARLINK-1127 3.5 05:46:43 10° WNW 05:49:51 56° SSW 05:53:01 10° SE
STARLINK-1184 3.5 05:47:10 10° WNW 05:50:18 56° SW 05:53:28 10° SE
Cosmos 1844 Rocket 4.0 05:45:24 10° NW 05:50:42 42° WSW 05:56:03 10° SSE
STARLINK-1193 3.5 05:47:38 10° WNW 05:50:46 55° SSW 05:53:55 10° SE
Cosmos 44 3.8 05:46:05 10° SSW 05:51:08 45° SE 05:55:53 10° ENE
STARLINK-1194 3.5 05:48:04 10° WNW 05:51:12 54° SSW 05:54:21 10° SE
Cosmos 1626 3.4 05:49:14 10° NE 05:52:08 21° E 05:55:04 10° SE
STARLINK-1159 4.4 05:49:13 10° NNW 05:53:05 36° NE 05:56:10 15° ESE
Cosmos 2228 2.9 05:49:37 10° S 05:53:57 69° E 05:58:12 10° NNE
STARLINK-1156 4.3 05:50:13 10° NNW 05:54:03 36° NE 05:57:02 15° ESE
STARLINK-24 3.6 05:50:34 10° SW 05:54:40 67° SE 05:58:07 14° ENE
Cosmos 1741 Rocket 4.4 05:49:35 10° S 05:54:41 44° ESE 05:59:45 10° NE
BREEZE-M DEB (TANK) 3.7 05:53:37 10° N 05:56:17 16° NNE 05:57:20 14° NE
STARLINK-1171 4.2 05:54:07 10° NNW 05:58:04 40° NE 06:00:59 17° ESE
YAOGAN 6 2.5 05:55:10 10° SSE 05:58:46 69° ENE 06:02:20 10° N
STARLINK-1148 4.2 05:55:07 10° NNW 05:59:01 39° NE 06:01:51 17° ESE
STARLINK-1150 4.0 05:56:22 10° WNW 06:00:02 52° SSW 06:03:32 11° SE
STARLINK-1048 3.7 05:56:37 10° SW 06:00:50 68° SE 06:04:01 17° ENE
Okean-O 3.0 05:57:37 10° SSE 06:01:55 41° E 06:06:08 10° N
Cosmos 1340 Rocket 2.9 05:57:54 10° S 06:02:02 61° ESE 06:06:06 10° NNE
SMAP 3.4 05:57:20 10° S 06:02:04 72° WSW 06:06:44 10° NNW
STARLINK-1155 4.1 05:59:01 10° NNW 06:03:01 43° NE 06:05:45 19° ESE
STARLINK-1158 4.1 06:00:00 10° NNW 06:03:58 43° NE 06:06:35 19° ESE
NOSS 3-1 (C) 4.3 05:55:44 10° NNW 06:04:16 57° ENE 06:11:57 10° SE
Cosmos 1242 Rocket 4.5 06:01:59 10° NW 06:05:23 34° WSW 06:08:52 10° S
Cosmos 1908 3.1 06:01:43 10° S 06:05:38 81° E 06:09:29 10° N
STARLINK-1049 3.6 06:01:35 10° SW 06:05:49 73° SE 06:08:48 19° ENE
Cosmos 1726 3.5 06:03:20 10° SSW 06:06:57 43° W 06:10:32 10° NNW
STARLINK-61 4.4 06:03:15 10° WSW 06:07:08 49° NW 06:11:00 10° NNE
Cosmos 1674 2.8 06:03:41 10° NNW 06:07:28 76° W 06:11:20 10° S
STARLINK-1166 4.0 06:03:56 10° NNW 06:07:59 48° NE 06:10:33 21° ESE
STARLINK-1051 3.6 06:06:35 10° SW 06:10:49 79° SE 06:13:36 21° ENE
Cosmos 1606 Rocket 3.8 06:06:48 10° SSW 06:11:12 72° W 06:15:34 10° N
STARLINK-1151 4.2 06:08:05 10° WNW 06:11:34 44° SSW 06:14:25 14° SE
SL-14 R/B 3.7 06:08:17 10° NNE 06:11:55 38° E 06:15:35 10° SSE
NOAA 12 4.2 06:06:54 10° SSE 06:12:20 88° WSW 06:17:43 10° NNW
FALCON 9 R/B 3.4 06:04:53 10° NW 06:12:22 24° N 06:15:00 15° NE
STARLINK-1165 3.8 06:08:51 10° NW 06:12:57 53° NE 06:15:20 23° ESE
STARLINK-1133 4.3 06:09:49 10° WNW 06:13:17 43° SSW 06:16:04 15° SE
CZ-2C R/B 3.6 06:08:54 10° NNE 06:13:19 63° ESE 06:17:47 10° S
STARLINK-1170 4.5 06:10:09 10° WNW 06:13:50 42° SSW 06:16:55 14° SE
STARLINK-1139 4.3 06:11:33 10° WNW 06:15:01 42° SSW 06:17:44 15° SE
Cosmos 1892 Rocket 3.5 06:10:44 10° N 06:15:10 88° E 06:19:39 10° S
STARLINK-1174 4.3 06:13:19 10° W 06:16:46 41° SSW 06:19:24 16° SE
CZ-2C R/B 3.0 06:12:19 10° NE 06:17:32 47° ESE 06:22:53 10° S
STARLINK-1169 3.7 06:13:46 10° NW 06:17:54 58° NE 06:20:07 26° ESE
Meteor 1-24 Rocket 3.6 06:13:01 10° N 06:18:23 65° E 06:24:02 10° SSE
STARLINK-1010 3.8 06:14:15 10° SW 06:18:34 76° NW 06:21:27 20° NE
Cosmos 371 Rocket 3.3 06:13:47 10° NNW 06:18:42 89° WSW 06:23:41 10° SSE
STARLINK-1180 4.4 06:16:54 10° W 06:20:20 39° SSW 06:22:50 16° SE
STARLINK-1028 3.6 06:16:32 10° SW 06:20:46 88° NW 06:23:10 25° NE
Shenzhou-11 Module 1.5 06:19:11 10° W 06:21:50 78° S 06:22:12 61° ESE
STARLINK-1153 4.5 06:18:43 10° W 06:22:09 38° SSW 06:24:34 17° SE
STARLINK-1178 3.7 06:18:43 10° NW 06:22:52 64° NE 06:24:54 29° ESE
STARLINK-81 3.6 06:20:17 10° SW 06:24:24 81° NW 06:26:33 27° NE
STARLINK-1021 3.7 06:21:31 10° SW 06:25:45 81° NW 06:27:57 27° NE
Cosmos 1939 Rocket 3.3 06:22:04 10° SSE 06:26:02 40° E 06:29:54 10° NNE
STARLINK-54 3.7 06:22:10 10° WSW 06:26:16 72° NW 06:28:28 26° NE
USA 81 4.3 06:21:30 10° N 06:26:48 73° W 06:32:11 10° S
CZ-4 R/B 1.5 06:23:07 10° SSE 06:27:08 50° E 06:31:01 10° N
CZ-4 R/B 4.4 06:23:15 10° SSE 06:27:27 62° E 06:31:36 10° N
STARLINK-77 3.6 06:23:36 10° SW 06:27:43 76° NW 06:29:45 28° NE
STARLINK-1120 3.6 06:23:41 10° NW 06:27:53 70° NE 06:29:43 32° ESE
STARLINK-25 3.7 06:25:16 10° SW 06:29:22 74° NW 06:31:20 29° NE
Cosmos 2082 Rocket 2.6 06:24:37 10° SSW 06:30:03 44° ESE 06:32:24 29° ENE
STARLINK-1019 3.7 06:26:30 10° SW 06:30:43 74° NW 06:32:44 29° NE
STARLINK-71 3.9 06:27:09 10° WSW 06:31:13 64° NW 06:33:16 27° NNE
Lacrosse 5 3.1 06:26:54 10° WNW 06:31:44 40° SSW 06:36:25 11° SE
STARLINK-79 3.7 06:28:35 10° WSW 06:32:40 69° NW 06:34:31 31° NE
STARLINK-1131 3.5 06:28:37 10° NW 06:32:50 76° NE 06:34:29 36° ESE
SL-23 DEB 3.5 06:30:21 10° WSW 06:33:31 69° NW 06:34:33 40° NE
MOS 1 Rocket 3.4 06:28:41 10° NNE 06:33:41 58° ESE 06:38:27 10° S
STARLINK-78 3.8 06:30:15 10° WSW 06:34:20 67° NW 06:36:08 31° NNE
STARLINK-1012 3.9 06:31:29 10° WSW 06:35:40 68° NW 06:37:30 32° NNE
STARLINK-57 3.9 06:32:00 10° WSW 06:36:04 61° NW 06:37:52 30° NNE
STARLINK-1023 4.0 06:32:58 10° WSW 06:37:11 61° NW 06:39:09 29° NNE
STARLINK-49 3.9 06:33:35 10° WSW 06:37:38 63° NW 06:39:19 32° NNE
STARLINK-1060 4.4 06:33:50 10° SW 06:37:49 38° SSE 06:38:30 35° SE
STARLINK-1190 3.5 06:33:35 10° NW 06:37:49 83° NE 06:39:17 40° ESE
Cosmos 1833 Rocket 2.6 06:32:18 10° SSW 06:38:02 78° ESE 06:42:19 18° NNE
STARLINK-27 3.9 06:35:13 10° WSW 06:39:16 61° NW 06:40:53 33° NNE
Cosmos 1850 Rocket 4.2 06:33:57 10° SSW 06:39:19 74° WNW 06:44:34 10° N
STARLINK-74 4.0 06:36:53 10° WSW 06:40:56 59° NW 06:42:29 34° NNE
STARLINK-39 4.0 06:38:32 10° WSW 06:42:34 57° NW 06:44:04 34° NNE
STARLINK-1030 4.3 06:38:49 10° SW 06:42:49 40° SSE 06:43:18 39° SE
STARLINK-31 4.1 06:40:14 10° WSW 06:44:15 54° NW 06:45:42 34° NNE
STARLINK-1026 4.1 06:41:29 10° WSW 06:45:37 56° NW 06:47:05 35° NNE
STARLINK-69 4.3 06:42:07 10° WSW 06:46:04 48° NW 06:47:34 31° N
Meteor 2-5 Rocket 4.5 06:40:45 10° NNW 06:46:15 55° WSW 06:51:58 10° S
CZ-2D R/B 3.1 06:43:06 10° SSE 06:47:03 65° E 06:50:54 10° N
STARLINK-21 4.2 06:43:34 10° WSW 06:47:34 50° NW 06:48:54 34° N
STARLINK-1020 4.2 06:43:46 10° SW 06:47:49 43° SSE 06:48:04 42° SE
STARLINK-45 4.5 06:45:28 10° WSW 06:49:23 44° NW 06:50:49 31° N
STARLINK-1013 4.3 06:46:28 10° WSW 06:50:34 51° NW 06:51:52 36° N
Cosmos 332 Rocket 4.4 06:46:06 10° NNW 06:50:55 59° WSW 06:55:46 10° SSE
STARLINK-70 4.5 06:47:02 10° WSW 06:50:58 44° NW 06:52:16 32° N
STARLINK-76 4.4 06:48:35 10° WSW 06:52:31 45° NW 06:53:42 35° N
STARLINK-1052 4.1 06:48:44 10° SW 06:52:49 46° SSE 06:52:51 46° SSE
CSL-04 Rocket 3.7 06:47:43 10° SSE 06:53:10 56° E 06:58:28 10° N
STARLINK-23 4.5 06:50:14 10° WSW 06:54:09 44° NW 06:55:16 34° N
Cosmos 44 Rocket 4.3 06:49:37 10° SSW 06:53:56 31° SE 06:53:56 31° SE
YAOGAN 1 2.4 06:50:08 10° SSE 06:54:34 79° ENE 06:58:55 10° N
COSMOS 2406 4.2 06:49:24 10° SW 06:54:52 46° WNW 07:00:14 10° N
Cosmos 2181 Rocket 4.0 06:48:55 10° S 06:55:24 64° E 06:59:25 24° NNE
STARLINK-1009 4.4 06:51:28 10° WSW 06:55:31 46° NW 06:56:38 36° N
Cosmos 1331 Rocket 3.9 06:50:49 10° NNW 06:56:04 88° ENE 07:01:26 10° SSE
Exosat Rocket 3.9 06:56:14 10° SSW 07:01:45 69° ESE 07:04:28 38° NE
STARLINK-1033 4.1 06:58:40 10° SW 07:02:25 50° S 07:02:25 50° S
Cosmos 2278 Rocket 3.1 06:57:38 10° NW 07:03:10 50° WSW 07:08:43 10° SSE
Cosmos 2297 4.0 06:58:09 10° N 07:02:49 47° NE 07:02:49 47° NE
Cosmos 1607 4.4 06:59:01 10° SW 07:05:07 58° WNW 07:09:18 20° N
Lacrosse 4 Rocket 4.5 07:04:48 10° SW 07:05:47 11° SW 07:06:46 10° SSW
BREEZE-M DEB (TANK) 3.3 07:04:24 10° W 07:07:26 56° SSW 07:09:47 34° SE
Cosmos 724 4.4 07:01:40 10° SSW 07:07:47 56° SE 07:08:26 53° ESE
STARLINK-1129 4.0 07:04:27 10° WNW 07:08:36 61° SSW 07:08:47 60° SSW
STARLINK-1027 4.1 07:05:38 10° SW 07:09:21 54° S 07:09:21 54° S
STARLINK-1024 4.3 07:08:36 10° SW 07:11:59 49° SSW 07:11:59 49° SSW
STARLINK-1134 4.1 07:09:30 10° WNW 07:13:36 56° SSW 07:13:36 56° SSW
STARLINK-1031 4.3 07:13:19 10° SW 07:16:47 53° SSW 07:16:47 53° SSW
STARLINK-1035 4.4 07:13:35 10° SW 07:16:46 47° SSW 07:16:46 47° SSW
STARLINK-1135 4.3 07:14:30 10° WNW 07:18:22 52° SW 07:18:22 52° SW
USA 229 DEB 4.3 07:11:22 10° NW 07:18:56 63° SW 07:26:13 10° SSE
Cosmos 1300 4.0 07:15:16 10° SSW 07:18:56 40° W 07:19:41 36° WNW
USA 229 4.3 07:11:28 10° NW 07:19:02 64° SW 07:26:21 10° SSE
Meteor 2-1 Rocket 4.1 07:16:40 10° S 07:22:22 87° E 07:23:01 71° NNE
Lacrosse 5 rocket 2.9 07:22:07 10° WSW 07:25:31 29° WNW 07:25:31 29° WNW
Cosmos 1626 4.5 07:24:09 10° NW 07:27:16 24° WSW 07:30:24 10° SSW
NOSS 3-1 (A) 4.2 07:19:49 10° NW 07:28:36 78° SW 07:35:34 14° SSE
CZ-4 R/B 4.4 07:59:26 10° SSW 08:01:41 15° WSW 08:03:55 10° W
Cosmos 2082 Rocket 3.8 08:09:09 10° SW 08:13:53 28° WNW 08:14:18 27° WNW
Lacrosse 5 4.2 08:12:33 10° SW 08:15:37 17° SSW 08:15:37 17° SSW
